[Iaude] MPEC W04: 2016 VQ5 [a=2.13,e=0.49,i=4.5,H=20.3]

mpec at si.edu mpec at si.edu
Thu Nov 17 22:06:11 EST 2016


M.P.E.C. 2016-W04                                Issued 2016 Nov. 18, 03:01 UT
 
     The Minor Planet Electronic Circulars contain information on unusual
         minor planets and routine data on comets.  They are published
    on behalf of Division F of the International Astronomical Union by the
          Minor Planet Center, Smithsonian Astrophysical Observatory,
                          Cambridge, MA 02138, U.S.A.

             Prepared using the Tamkin Foundation Computer Network

                              MPC at CFA.HARVARD.EDU
            URL http://www.minorplanetcenter.net/    ISSN 1523-6714


                                   2016 VQ5
 
Observations:
     K16V05Q* C2016 11 06.49713 08 54 44.34 +15 19 53.5          20.8 VqEW004G96
     K16V05Q  C2016 11 06.50150 08 54 45.18 +15 19 52.8          20.4 VqEW004G96
     K16V05Q  C2016 11 06.50581 08 54 46.10 +15 19 52.9          20.8 VqEW004G96
     K16V05Q  C2016 11 06.51017 08 54 46.93 +15 19 51.9          20.6 VqEW004G96
     K16V05Q KC2016 11 07.52486 08 58 13.83 +15 18 05.9          20.9 RoEW004291
     K16V05Q KC2016 11 07.52637 08 58 14.12 +15 18 05.8          20.9 RoEW004291
     K16V05Q KC2016 11 07.52786 08 58 14.43 +15 18 06.0          20.9 RoEW004291
     K16V05Q  C2016 11 11.45832 09 11 01.07 +15 11 19.2          20.8 RoEW004926
     K16V05Q  C2016 11 11.46606 09 11 02.47 +15 11 18.3          21.4 RoEW004926
     K16V05Q  C2016 11 11.47394 09 11 03.91 +15 11 18.6          20.5 RoEW004926
     K16V05Q KC2016 11 11.48403 09 11 05.74 +15 11 17.1                oEW004291
     K16V05Q KC2016 11 11.48553 09 11 06.00 +15 11 16.9                oEW004291
     K16V05Q KC2016 11 11.48703 09 11 06.28 +15 11 16.6                oEW004291
     K16V05Q KC2016 11 12.39292 09 13 55.34 +15 09 46.3          20.3 RoEW004291
     K16V05Q KC2016 11 12.39811 09 13 56.27 +15 09 46.1                oEW004291
     K16V05Q KC2016 11 12.40329 09 13 57.21 +15 09 45.4                oEW004291
     K16V05Q  C2016 11 13.46196209 17 09.97 +15 08 05.9          20.8 GUEW004H01
     K16V05Q  C2016 11 13.47125409 17 11.59 +15 08 05.1          20.9 GUEW004H01
     K16V05Q  C2016 11 13.47518809 17 12.27 +15 08 04.7          20.8 GUEW004H01
     K16V05Q  C2016 11 13.48233909 17 13.52 +15 08 04.1          20.7 GUEW004H01
 
Observer details:
291 LPL/Spacewatch II.  Observers T. H. Bressi, A. F. Tubbiolo, R. A. Mastaler.
    1.8-m f/2.7 reflector + CCD.
926 Tenagra II Observatory.  Observers M. Schwartz, P. R. Holvorcem.  Measurer
    M. Schwartz.  0.81-m f/7 Ritchey-Chretien + CCD.
G96 Mt. Lemmon Survey.  Observer R. A. Kowalski.  Measurers E. J. Christensen,
    D. C. Fuls, A. R. Gibbs, A. D. Grauer, J. A. Johnson, R. A. Kowalski,
    S. M. Larson, G. J. Leonard, R. G. Matheny, R. L. Seaman, F. C. Shelly.
    1.5-m reflector + 10K CCD.
H01 Magdalena Ridge Observatory, Socorro.  Observers W. H. Ryan, E. V. Ryan.
    Measurer W. H. Ryan.  2.4-m f/8.9 reflector + CCD.
 
Orbital elements:
2016 VQ5                                                 Earth MOID = 0.1092 AU
Epoch 2017 Feb. 16.0 TT = JDT 2457800.5                 MPC
M  36.72575              (2000.0)            P               Q
n   0.31807493     Peri.  335.08120     +0.59527538     -0.79984901
a   2.1254444      Node    78.29601     +0.74972828     +0.51852866
e   0.4861907      Incl.    4.49475     +0.28905834     +0.30227402
P   3.10           H   20.3           G   0.15           U   7
Residuals in seconds of arc
161106 G96  0.2-  0.1-    161111 926  0.0   0.3-    161112 291  0.1-  0.2+
161106 G96  0.6-  0.4-    161111 926  0.1-  0.5-    161112 291  0.0   0.1-
161106 G96  0.3+  0.2+    161111 926  0.0   0.5+    161113 H01  0.1-  0.1+
161106 G96  0.2-  0.4-    161111 291  0.1-  0.1+    161113 H01  0.0   0.1+
161107 291  0.0   0.0     161111 291  0.3-  0.0     161113 H01  0.1-  0.0
161107 291  0.1-  0.1+    161111 291  0.2-  0.2-    161113 H01  0.0   0.0
161107 291  0.2+  0.4+    161112 291  0.0   0.0

Ephemeris:
2016 VQ5                 a,e,i = 2.13, 0.49, 4                   q = 1.0921
Date    TT    R. A. (2000) Decl.     Delta      r     Elong.  Phase     V
2016 10 19    07 40 57.5 +15 37 25   0.4268  1.0933    91.4    65.6    21.0
...
2016 11 03    08 42 21.3 +15 25 58   0.4407  1.0986    91.9    64.5    21.0
...
2016 11 11    09 09 33.8 +15 12 12   0.4497  1.1123    93.5    62.7    21.0
...
2016 11 17    09 27 25.5 +15 03 14   0.4560  1.1272    95.4    60.8    21.0
2016 11 18    09 30 11.4 +15 02 03   0.4570  1.1300    95.8    60.5    21.0
2016 11 19    09 32 53.7 +15 00 59   0.4579  1.1330    96.2    60.1    21.0
...
2016 11 25    09 47 50.3 +14 57 38   0.4631  1.1527    98.8    57.8    21.0
...
2016 12 03    10 04 15.7 +15 04 01   0.4684  1.1840   103.2    54.2    21.0
...
2016 12 18    10 23 55.3 +16 01 43   0.4745  1.2557   114.2    45.6    20.9

A. U. Tomatic                (C) Copyright 2016 MPC           M.P.E.C. 2016-W04




More information about the Iaude mailing list